GW1734 Weather Reports


time (UTC)temp
C
wind
direction
speed
KPH
gust
KPH
rain 1hr
cm
rain 24hr
cm
rain mn
cm
humidity
%
barometer
mb
20260505065714 10 295 0.0 0.0 0.00 0.00 0.00 97 1013.2
20260505065211 10 280 0.0 0.0 0.00 0.00 0.00 98 1013.3
20260505064708 10 281 0.0 0.0 0.00 0.00 0.00 97 1013.1
20260505064206 10 286 0.0 0.0 0.00 0.00 0.00 97 1013.0
20260505063703 10 269 0.0 0.0 0.00 0.00 0.00 98 1013.1
20260505063159 10 293 0.0 0.0 0.00 0.00 0.00 96 1012.9
20260505062655 10 291 0.0 0.0 0.00 0.00 0.00 95 1013.0
20260505062154 10 291 0.0 0.0 0.00 0.00 0.00 95 1012.7
20260505061650 11 291 0.0 0.0 0.00 0.00 0.00 95 1012.8
20260505061148 11 291 0.0 0.0 0.00 0.00 0.00 94 1012.7
20260505060645 11 317 0.0 0.0 0.00 0.00 0.00 94 1012.8
20260505060142 11 261 0.0 0.0 0.00 0.00 0.00 94 1012.8
20260505055637 11 268 0.0 0.0 0.00 0.00 0.00 95 1012.7
20260505055134 11 294 0.0 0.0 0.00 0.00 0.00 95 1012.7
20260505054632 11 259 0.0 0.0 0.00 0.00 0.00 95 1012.6
20260505054130 11 262 0.0 0.0 0.00 0.00 0.00 95 1012.5
20260505053627 11 329 0.0 0.0 0.00 0.00 0.00 95 1012.6
20260505053123 11 316 0.0 0.0 0.00 0.00 0.00 95 1012.7
20260505052620 11 316 0.0 0.0 0.00 0.00 0.00 95 1012.8
20260505052118 11 316 0.0 0.0 0.00 0.00 0.00 94 1012.7
20260505051614 11 317 0.0 0.0 0.00 0.00 0.00 94 1012.8
20260505051112 12 316 0.0 0.0 0.00 0.00 0.00 93 1012.6
20260505050610 12 313 0.0 0.0 0.00 0.00 0.00 93 1012.5
20260505050108 12 313 0.0 0.0 0.00 0.00 0.00 91 1012.4
20260505041538 15 293 0.0 0.0 0.00 0.00 0.00 83 1012.0
20260505041035 15 293 0.0 0.0 0.00 0.00 0.00 82 1012.0
20260505040532 15 288 0.0 0.0 0.00 0.00 0.00 82 1011.9
20260505040030 15 289 0.0 0.0 0.00 0.00 0.00 82 1011.6
20260505035525 15 282 0.0 0.0 0.00 0.00 0.00 81 1011.6
20260505035022 16 270 0.0 0.0 0.00 0.00 0.00 80 1011.3
20260505034519 16 333 0.0 1.6 0.00 0.00 0.00 81 1011.3
20260505034016 16 290 0.0 0.0 0.00 0.00 0.00 81 1011.4
20260505033513 16 292 0.0 0.0 0.00 0.00 0.00 80 1011.4
20260505033011 16 294 0.0 0.0 0.00 0.00 0.00 80 1011.2
20260505032508 16 279 0.0 0.0 0.00 0.00 0.00 80 1011.4
20260505032004 16 310 0.0 0.0 0.00 0.00 0.00 79 1011.1
20260505031501 17 297 0.0 0.0 0.00 0.00 0.00 77 1010.9
20260505030958 17 295 0.0 0.0 0.00 0.00 0.00 77 1010.9
20260505030455 17 288 0.0 0.0 0.00 0.00 0.00 76 1010.9
20260505025950 18 302 0.0 0.0 0.00 0.00 0.00 75 1010.7
20260505025447 18 285 0.0 0.0 0.00 0.00 0.00 74 1010.7
20260505024946 18 272 0.0 0.0 0.00 0.00 0.00 73 1010.8
20260505024443 19 289 0.0 0.0 0.00 0.00 0.00 71 1010.7
20260505023940 20 288 0.0 0.0 0.00 0.00 0.00 70 1010.6
20260505023437 20 312 0.0 0.0 0.00 0.00 0.00 69 1010.7
20260505022934 20 272 0.0 0.0 0.00 0.00 0.00 68 1010.4
20260505022432 20 314 0.0 0.0 0.00 0.00 0.00 67 1010.3
20260505021929 21 271 0.0 0.0 0.00 0.00 0.00 68 1010.5
20260505021425 21 290 0.0 0.0 0.00 0.00 0.00 68 1010.2
20260505020921 21 297 0.0 0.0 0.00 0.00 0.00 67 1010.5
20260505020416 21 281 1.6 3.2 0.00 0.00 0.00 66 1010.2
20260505015913 21 284 0.0 3.2 0.00 0.00 0.00 68 1010.1
20260505015411 22 267 0.0 0.0 0.00 0.00 0.00 66 1010.1
20260505014908 22 275 0.0 0.0 0.00 0.00 0.00 66 1010.1
20260505014405 22 291 0.0 1.6 0.00 0.00 0.00 65 1010.3
20260505013902 23 253 0.0 0.0 0.00 0.00 0.00 64 1010.0
20260505013358 23 288 3.2 4.8 0.00 0.00 0.00 63 1009.9
20260505012857 23 227 1.6 4.8 0.00 0.00 0.00 63 1010.0
20260505012354 23 280 1.6 4.8 0.00 0.00 0.00 63 1009.9
20260505011850 24 243 0.0 0.0 0.00 0.00 0.00 64 1010.0
20260505011347 25 296 1.6 4.8 0.00 0.00 0.00 63 1009.7
20260505010843 25 241 0.0 0.0 0.00 0.00 0.00 62 1009.9
20260505010339 26 280 0.0 0.0 0.00 0.00 0.00 63 1010.0
20260505005836 26 84 0.0 0.0 0.00 0.00 0.00 62 1009.9
20260505005332 26 319 0.0 0.0 0.00 0.00 0.00 63 1010.2
20260505004830 25 260 0.0 0.0 0.00 0.00 0.00 64 1010.2
20260505004326 25 286 0.0 0.0 0.00 0.00 0.00 64 1010.1
20260505003824 25 140 0.0 0.0 0.00 0.00 0.00 65 1010.2
20260505003321 25 218 0.0 0.0 0.00 0.00 0.00 65 1010.2
20260505002816 25 262 0.0 0.0 0.00 0.00 0.00 63 1010.0
20260505002314 25 209 0.0 0.0 0.00 0.00 0.00 65 1010.2
20260505001812 26 348 0.0 0.0 0.00 0.00 0.00 63 1010.1
20260505001309 27 69 0.0 0.0 0.00 0.00 0.00 60 1010.0
20260505000806 26 239 0.0 0.0 0.00 0.00 0.00 62 1010.2
20260505000304 26 348 0.0 0.0 0.00 0.00 0.00 63 1010.2
20260504235800 26 55 0.0 0.0 0.00 0.00 0.00 62 1010.2
20260504235256 26 227 0.0 0.0 0.00 0.00 0.00 62 1010.3
20260504234754 26 278 0.0 0.0 0.00 0.00 0.00 61 1010.1
20260504234251 26 296 0.0 0.0 0.00 0.00 0.00 65 1010.2
20260504233747 25 74 0.0 1.6 0.00 0.00 0.00 67 1010.2
20260504233243 25 5 0.0 0.0 0.00 0.00 0.00 65 1010.2
20260504232740 25 89 0.0 0.0 0.00 0.00 0.00 64 1010.3
20260504232237 25 277 0.0 0.0 0.00 0.00 0.00 65 1010.3
20260504231734 25 309 0.0 0.0 0.00 0.00 0.00 68 1010.3
20260504231231 25 295 0.0 0.0 0.00 0.00 0.00 66 1010.4
20260504230726 25 184 0.0 0.0 0.00 0.00 0.00 64 1010.3
20260504230225 26 263 0.0 0.0 0.00 0.00 0.00 61 1010.7
20260504225724 26 94 0.0 0.0 0.00 0.00 0.00 62 1010.5
20260504225220 25 211 0.0 0.0 0.00 0.00 0.00 64 1010.8
20260504224717 25 336 0.0 0.0 0.00 0.00 0.00 68 1010.9
20260504224214 24 258 0.0 0.0 0.00 0.00 0.00 70 1010.9
20260504223710 25 65 0.0 0.0 0.00 0.00 0.00 67 1010.9
20260504223206 25 247 0.0 0.0 0.00 0.00 0.00 63 1011.1
20260504222703 25 311 0.0 0.0 0.00 0.00 0.00 66 1011.0
20260504222200 25 311 0.0 0.0 0.00 0.00 0.00 65 1011.1
20260504221657 25 275 0.0 0.0 0.00 0.00 0.00 65 1011.2
20260504221155 24 296 0.0 0.0 0.00 0.00 0.00 68 1011.1
20260504220650 24 340 0.0 0.0 0.00 0.00 0.00 69 1011.3
20260504220149 23 297 0.0 0.0 0.00 0.00 0.00 70 1011.3
20260504215644 23 38 0.0 0.0 0.00 0.00 0.00 73 1011.3
20260504215142 23 274 0.0 0.0 0.00 0.00 0.00 71 1011.5
20260504214637 22 18 0.0 0.0 0.00 0.00 0.00 72 1011.4
20260504214134 22 217 0.0 0.0 0.00 0.00 0.00 77 1011.5
20260504213631 22 83 0.0 0.0 0.00 0.00 0.00 76 1011.9
20260504213128 22 141 0.0 0.0 0.00 0.00 0.00 71 1011.8
20260504212624 22 72 0.0 0.0 0.00 0.00 0.00 74 1011.9
20260504212121 22 67 0.0 1.6 0.00 0.00 0.00 77 1011.8
20260504211619 22 84 0.0 0.0 0.00 0.00 0.00 77 1012.1
20260504211115 21 66 0.0 0.0 0.00 0.00 0.00 75 1012.0
20260504210613 21 98 0.0 0.0 0.00 0.00 0.00 72 1012.3
20260504210109 21 67 0.0 0.0 0.00 0.00 0.00 75 1012.4
20260504205606 21 73 0.0 0.0 0.00 0.00 0.00 75 1012.4
20260504205104 21 88 0.0 0.0 0.00 0.00 0.00 75 1012.4
20260504204602 21 112 0.0 0.0 0.00 0.00 0.00 75 1012.2
20260504204101 20 96 0.0 0.0 0.00 0.00 0.00 76 1012.4
20260504203559 20 67 1.6 3.2 0.00 0.00 0.00 75 1012.5
20260504203056 20 141 0.0 0.0 0.00 0.00 0.00 74 1012.7
20260504202551 21 93 1.6 3.2 0.00 0.00 0.00 76 1012.6
20260504202048 20 75 0.0 0.0 0.00 0.00 0.00 75 1012.6
20260504201545 20 78 0.0 0.0 0.00 0.00 0.00 76 1012.7
20260504201043 20 74 0.0 0.0 0.00 0.00 0.00 75 1012.7
20260504200539 20 112 0.0 0.0 0.00 0.00 0.00 80 1012.8
20260504200036 20 97 0.0 0.0 0.00 0.00 0.00 76 1012.7
20260504195532 19 109 1.6 3.2 0.00 0.00 0.00 78 1012.9
20260504195029 19 89 0.0 0.0 0.00 0.00 0.00 77 1012.9
20260504194525 19 66 0.0 0.0 0.00 0.00 0.00 78 1012.9
20260504194021 19 31 0.0 1.6 0.00 0.00 0.00 80 1013.0
20260504193518 18 89 0.0 0.0 0.00 0.00 0.00 81 1012.9
20260504193017 18 102 0.0 0.0 0.00 0.00 0.00 79 1013.3
20260504192514 18 71 0.0 0.0 0.00 0.00 0.00 82 1013.0
20260504192012 18 78 0.0 3.2 0.00 0.00 0.00 79 1013.2
20260504191510 18 112 0.0 0.0 0.00 0.00 0.00 78 1013.2
20260504191006 18 50 0.0 0.0 0.00 0.00 0.00 80 1013.4
20260504190502 18 68 0.0 3.2 0.00 0.00 0.00 82 1013.2
20260504185958 18 62 0.0 0.0 0.00 0.00 0.00 82 1013.1
20260504185455 18 119 0.0 0.0 0.00 0.00 0.00 79 1013.3
20260504184952 18 71 0.0 0.0 0.00 0.00 0.00 81 1013.3
20260504184447 18 83 0.0 0.0 0.00 0.00 0.00 82 1013.4
20260504183943 17 81 0.0 1.6 0.00 0.00 0.00 80 1013.4
20260504183440 17 84 0.0 0.0 0.00 0.00 0.00 83 1013.2
20260504182938 17 90 0.0 1.6 0.00 0.00 0.00 80 1013.3
20260504182435 17 84 4.8 9.7 0.00 0.00 0.00 80 1013.4
20260504181932 17 79 0.0 3.2 0.00 0.00 0.00 83 1013.4
20260504181429 17 57 0.0 0.0 0.00 0.00 0.00 82 1013.3
20260504180928 17 41 0.0 0.0 0.00 0.00 0.00 82 1013.2
20260504180426 17 66 1.6 1.6 0.00 0.00 0.00 83 1013.4
20260504175924 17 49 1.6 3.2 0.00 0.00 0.00 83 1013.2
20260504175421 17 352 0.0 0.0 0.00 0.00 0.00 80 1013.5
20260504174918 17 83 0.0 0.0 0.00 0.00 0.00 81 1013.5
20260504174416 16 69 1.6 8.0 0.00 0.00 0.00 84 1013.3
20260504173913 17 67 1.6 3.2 0.00 0.00 0.00 83 1013.5
20260504173409 17 80 0.0 1.6 0.00 0.00 0.00 81 1013.5
20260504172907 16 90 3.2 4.8 0.00 0.00 0.00 83 1013.3
20260504172403 17 71 0.0 1.6 0.00 0.00 0.00 83 1013.4
20260504171859 17 88 0.0 0.0 0.00 0.00 0.00 82 1013.3
20260504171356 16 85 0.0 0.0 0.00 0.00 0.00 84 1013.0
20260504170854 16 13 0.0 0.0 0.00 0.00 0.00 83 1013.3
20260504170350 16 65 1.6 3.2 0.00 0.00 0.00 84 1013.2
20260504160309 16 104 0.0 0.0 0.00 0.00 0.00 85 1013.2
20260504150734 16 295 0.0 0.0 0.00 0.00 0.00 88 1012.9
20260504150231 15 278 0.0 0.0 0.00 0.00 0.00 90 1012.9
20260504141200 11 277 0.0 0.0 0.00 0.00 0.00 99 1012.4
20260504140656 11 277 0.0 0.0 0.00 0.00 0.00 99 1012.4
20260504140152 11 276 0.0 0.0 0.00 0.00 0.00 99 1012.5
20260504130620 8 292 0.0 0.0 0.00 0.00 0.00 99 1011.5
20260504130117 8 304 0.0 0.0 0.00 0.00 0.00 99 1011.6
20260504110509 10 97 0.0 0.0 0.00 0.00 0.00 99 1009.7
20260504100431 10 263 0.0 0.0 0.00 0.00 0.00 99 1009.0
20260504081824 10 291 0.0 0.0 0.00 0.00 0.00 99 1009.0
20260504081320 10 280 0.0 0.0 0.00 0.00 0.00 99 1008.9
20260504080816 11 276 0.0 0.0 0.00 0.00 0.00 99 1008.9
20260504080314 10 280 0.0 0.0 0.00 0.00 0.00 99 1009.2
20260504070241 11 287 0.0 0.0 0.00 0.00 0.00 98 1008.8